Theta_e
344 342 335 341 342 338 337 336 335 334 334 333 332 327 322 313 308 308 308 322 328 326 326 327 324 320 315 314 314 314 314 314 315 317 311 309 309 310 314 319 324 319 315
344 342 333 340 342 340 337 336 335 335 334 333 328 323 313 308 308 309 310 324 326 325 325 324 320 315 315 314 313 313 313 313 318 323 322 318 310 309 309 309 314 318 316
344 340 331 338 340 340 338 337 335 335 335 330 324 315 307 308 309 310 314 320 323 320 321 318 315 315 314 313 312 312 311 316 321 322 322 322 318 310 309 311 318 314 315
343 340 338 339 339 339 337 336 335 335 331 325 316 308 308 310 311 313 317 322 325 320 316 315 315 315 313 313 312 312 313 320 321 322 322 321 319 308 313 308 309 309 314
342 340 337 337 339 337 337 336 336 332 326 317 308 308 310 311 314 317 319 323 326 316 315 315 315 314 313 313 313 312 317 319 320 321 321 320 317 305 305 310 308 306 306
342 339 335 335 337 336 336 337 332 326 317 308 308 310 311 314 317 318 319 324 323 315 315 315 314 314 314 313 311 310 316 318 319 321 320 316 305 303 302 302 302 303 304
339 338 335 331 337 337 336 330 325 316 308 308 311 311 313 316 317 317 318 318 316 315 315 315 315 315 314 312 309 308 314 317 318 320 319 316 304 302 302 301 301 301 301
336 335 335 332 332 330 329 325 320 313 310 312 312 313 314 316 316 315 315 315 315 315 315 316 317 315 313 310 308 306 313 316 317 319 319 316 303 302 301 300 301 301 301
335 331 326 330 329 324 321 320 319 319 319 318 313 314 315 315 315 315 315 315 315 316 317 318 317 315 312 309 307 306 308 315 316 317 318 316 306 304 301 301 301 301 301
332 329 331 325 326 327 324 318 316 319 316 312 314 315 315 315 314 314 315 315 316 317 318 318 318 316 311 309 307 306 311 312 313 315 316 310 310 311 303 301 301 301 301
329 330 330 330 327 327 322 323 320 314 316 313 315 314 313 314 314 317 316 316 317 318 319 319 319 318 311 308 307 307 309 310 310 312 314 304 311 311 309 303 302 301 301
329 328 328 329 325 323 323 321 318 314 314 314 314 314 313 314 316 318 315 316 317 318 318 319 319 315 312 311 309 308 307 308 307 307 307 300 311 312 310 308 305 303 301
328 327 325 323 322 322 322 320 316 317 316 314 314 313 313 320 321 315 315 317 317 318 319 319 316 314 314 310 307 307 307 307 306 306 305 299 301 311 310 307 307 305 304
325 324 322 322 323 322 321 315 316 314 314 313 313 314 316 321 319 315 318 318 318 317 317 316 317 319 315 309 308 307 304 305 305 306 307 299 298 309 310 309 308 307 305
323 323 323 321 321 320 317 317 316 315 315 317 312 313 319 322 323 321 321 319 318 318 317 316 319 319 314 309 307 306 304 304 304 309 309 299 299 310 308 306 308 306 306
322 320 319 319 319 316 313 314 313 315 317 312 313 317 323 323 323 322 321 320 319 318 317 316 316 316 310 309 308 305 304 304 303 306 309 307 299 301 301 300 301 302 302
321 320 319 315 315 318 321 322 321 321 318 320 321 322 323 322 320 322 321 320 319 318 317 316 318 313 310 308 307 306 306 305 304 304 306 309 308 304 302 299 299 298 298
320 320 317 317 318 321 322 323 321 320 320 320 321 323 316 319 316 320 322 321 319 319 319 317 314 313 311 309 308 308 307 306 304 304 305 307 307 302 302 302 300 296 295
321 322 322 321 322 321 321 322 322 321 321 320 321 324 323 317 322 322 323 322 322 321 318 318 315 314 311 310 309 309 309 307 306 304 304 304 303 301 301 300 300 298 298
324 324 323 322 323 323 323 322 321 322 321 320 322 323 324 325 324 323 323 322 322 319 320 318 315 313 312 311 309 308 310 309 307 306 305 304 303 302 302 302 300 300 299
324 323 323 322 322 324 324 322 320 321 321 322 323 325 326 325 325 324 323 322 322 319 317 316 316 314 311 311 311 312 310 309 307 306 305 305 304 303 302 301 301 300 300
324 324 324 323 323 325 325 324 321 319 320 321 322 325 326 325 325 322 322 322 322 319 317 316 315 313 312 311 312 310 312 310 307 306 305 305 304 303 302 301 301 300 299
325 325 326 326 325 325 325 324 322 320 320 322 323 324 324 325 322 323 323 322 321 321 317 317 315 313 313 311 309 309 310 309 308 307 306 304 303 303 302 301 301 300 298
328 326 326 327 326 327 327 325 324 321 320 321 323 324 324 323 320 323 322 321 321 320 317 317 315 313 312 312 309 309 308 308 306 307 306 303 303 302 302 301 301 299 298
330 329 328 327 327 328 328 327 327 324 322 322 323 324 324 323 323 322 322 321 322 318 316 315 313 312 311 311 308 308 310 309 305 303 304 304 302 301 301 300 299 298 297
330 330 330 329 328 328 329 329 329 327 326 322 322 326 325 325 322 322 323 323 321 319 317 314 312 311 310 309 307 307 309 307 302 300 301 301 301 301 300 299 298 297 296
Wind_Speed
16 18 26 25 27 32 33 32 29 26 23 21 19 18 15 15 18 20 22 23 24 22 24 23 21 19 19 20 20 20 19 18 20 20 16 15 15 15 14 15 16 15 11
18 20 28 26 27 31 34 33 30 27 24 22 20 17 17 19 21 22 24 25 24 25 24 22 20 19 19 19 19 19 18 19 22 24 22 17 14 14 12 11 11 15 13
20 24 30 28 28 30 34 32 30 27 25 22 19 19 22 23 24 24 25 26 25 25 24 22 20 19 18 18 18 19 19 21 25 22 16 16 16 14 12 11 12 12 12
21 27 27 29 31 32 34 32 30 27 25 23 21 24 25 25 25 26 27 26 24 25 23 22 20 18 17 17 17 18 19 23 22 19 12 14 15 13 13 10 8 9 12
21 28 29 34 33 33 35 33 31 29 25 23 26 27 26 26 27 27 27 26 23 23 22 21 18 17 17 16 16 18 22 24 20 12 14 14 15 12 10 10 11 9 8
20 28 33 34 36 35 35 33 31 28 25 27 29 28 28 29 29 28 28 26 22 22 21 19 17 16 15 15 15 17 22 20 17 12 14 14 14 12 12 10 10 9 8
24 25 38 35 33 36 35 33 29 27 28 30 30 31 31 30 29 29 29 25 22 21 20 18 16 14 14 14 15 15 18 20 13 12 12 13 14 12 12 11 10 8 8
17 18 8 34 28 29 27 25 25 28 30 30 31 32 32 31 29 26 24 23 21 19 18 16 14 13 12 13 14 15 18 19 11 11 9 11 13 12 12 11 10 11 10
14 13 19 22 28 30 30 25 20 21 26 28 32 33 32 29 27 24 21 20 20 18 16 14 12 12 12 13 14 15 16 18 12 10 8 7 12 12 12 11 10 10 9
9 19 38 41 28 28 21 19 21 16 22 29 31 30 30 28 26 22 20 19 17 16 13 12 10 11 11 12 12 13 15 15 9 6 6 6 8 9 11 10 10 9 9
24 34 41 39 35 34 31 21 32 34 26 28 28 27 27 25 23 21 19 17 15 14 11 10 8 9 9 11 11 11 13 6 7 5 4 7 6 6 8 9 9 10 10
32 39 39 35 40 37 22 33 38 33 28 30 30 28 24 23 22 18 17 16 14 12 9 7 7 11 13 8 9 10 5 7 6 5 4 5 2 3 5 7 8 8 9
32 30 30 36 36 25 36 37 36 32 34 33 29 25 23 20 18 19 18 15 13 11 9 7 7 8 4 3 3 5 6 6 4 4 7 3 0 1 3 6 6 7 7
32 34 37 32 26 29 30 37 35 34 34 33 28 24 24 17 17 18 15 15 14 9 8 6 6 1 1 2 4 5 5 4 3 3 5 3 4 5 0 4 5 6 7
27 28 28 31 26 29 37 35 35 35 30 25 27 23 21 16 17 14 14 13 11 11 9 8 3 2 1 2 3 4 5 6 4 4 5 0 3 6 3 2 4 5 6
22 23 27 23 22 33 35 31 29 26 22 28 26 23 18 16 19 15 16 13 13 11 9 7 5 2 3 1 2 3 3 2 3 6 0 3 4 7 7 7 8 10 10
22 22 21 27 35 29 23 23 20 17 19 19 16 16 18 17 16 15 14 13 12 11 11 10 8 6 4 4 3 1 2 3 1 1 3 4 5 4 8 10 11 13 14
21 27 27 27 25 19 18 19 18 17 17 17 18 17 20 19 17 16 13 15 16 14 13 10 8 6 7 7 5 3 1 1 2 1 3 4 4 4 12 12 14 14 15
27 26 27 24 21 18 18 17 15 17 19 19 17 16 17 19 18 18 19 16 18 15 14 12 9 10 9 7 6 5 4 2 4 3 6 5 6 4 5 12 15 14 13
24 25 25 23 21 19 17 16 15 15 16 17 18 16 20 20 19 19 17 20 20 17 17 13 11 10 8 8 7 7 6 6 5 7 7 6 7 8 7 7 8 11 16
23 24 23 23 22 20 17 17 17 18 18 19 18 19 20 19 21 21 17 19 20 18 15 15 13 12 9 10 7 7 9 11 7 7 8 9 9 11 10 9 8 7 11
26 25 23 22 22 20 18 18 18 18 19 19 18 18 20 20 23 23 21 20 22 18 18 19 16 11 11 10 6 7 5 6 6 8 9 10 12 12 12 11 11 11 11
27 27 25 24 23 21 19 18 18 18 19 20 20 19 23 23 24 23 21 24 24 24 24 22 19 16 13 11 9 4 4 4 15 10 11 11 11 12 12 12 12 13 13
28 28 27 26 25 24 23 21 22 21 22 21 21 21 28 23 27 24 23 26 27 25 28 23 20 17 16 15 12 11 9 8 6 10 7 12 14 13 12 13 14 13 13
28 29 29 28 27 25 24 24 22 22 20 18 19 21 25 21 24 23 25 32 28 28 29 26 21 19 16 17 23 18 12 15 12 14 14 12 12 13 14 13 14 14 13
27 28 28 28 29 28 26 26 26 24 23 21 22 24 24 21 25 25 29 30 28 31 29 29 22 18 25 24 20 20 17 15 11 14 16 17 18 19 17 15 16 14 12
Wind_Direction
165 180 174 165 170 174 173 172 171 168 164 159 154 150 146 140 134 130 128 121 123 122 122 120 113 105 95 91 88 84 80 78 76 64 62 73 75 77 77 75 62 62 64
177 186 176 169 174 176 175 175 173 170 167 161 156 153 147 140 137 135 131 125 125 125 122 119 114 105 98 92 87 84 79 76 76 67 49 55 68 70 73 70 69 62 58
173 172 177 173 176 177 177 178 175 172 170 161 160 154 145 143 141 137 131 129 128 127 126 121 113 103 96 88 85 82 80 83 79 77 63 59 62 62 66 66 62 58 56
179 172 170 173 177 177 179 178 177 173 168 164 162 153 148 145 140 136 135 132 129 130 125 117 108 100 90 83 79 76 78 85 76 71 71 63 57 60 55 48 59 58 51
182 176 180 176 178 182 181 179 176 173 170 166 159 152 147 145 141 138 137 134 134 129 121 115 107 98 88 84 79 78 85 78 75 72 76 70 61 57 55 53 43 40 38
186 188 186 176 180 181 179 177 174 172 170 163 155 151 147 142 139 139 139 135 136 128 124 116 105 93 88 83 76 78 89 78 74 73 65 63 60 52 46 39 33 33 31
180 196 179 177 178 176 171 172 172 170 164 159 154 150 145 142 141 141 140 139 136 131 124 113 102 94 86 78 75 78 96 88 79 76 70 62 55 50 47 40 38 34 34
200 180 127 159 158 148 151 152 156 157 157 156 153 149 145 144 141 141 140 138 137 131 120 111 101 92 87 80 77 77 87 82 71 70 69 66 48 48 44 41 43 46 46
200 194 175 149 141 136 127 128 136 143 149 152 154 149 145 143 142 140 139 139 135 129 121 112 99 90 81 75 74 70 80 84 68 79 75 62 31 49 54 53 49 46 41
186 187 179 189 205 196 181 115 133 139 159 158 154 149 145 146 143 142 142 140 138 135 125 108 95 81 71 70 68 69 74 65 77 64 70 36 48 55 52 52 56 53 46
153 168 177 178 193 181 158 173 169 159 170 154 150 147 145 144 139 142 149 148 150 140 128 112 98 72 71 71 61 64 68 74 71 66 67 26 44 62 52 57 52 49 46
153 151 159 167 165 159 163 160 160 155 157 155 153 146 150 150 151 155 157 161 154 143 135 124 95 77 70 40 31 50 69 71 57 64 323 1 51 32 29 36 49 60 47
153 155 155 157 162 159 152 157 149 159 164 161 151 159 165 152 173 162 162 161 161 165 160 144 96 89 154 92 61 74 58 51 60 66 318 328 278 271 339 3 22 30 35
160 162 159 158 158 162 158 148 158 165 162 162 159 177 163 175 170 167 160 172 173 162 170 145 167 146 85 39 27 33 51 88 68 61 322 262 229 224 305 345 3 357 355
175 171 167 152 144 160 156 160 161 161 161 168 173 178 181 177 162 159 173 177 165 186 175 176 199 219 353 28 27 33 30 15 52 96 301 216 183 204 237 231 308 299 315
171 160 155 157 163 154 151 156 160 166 172 171 186 181 181 181 183 176 186 181 187 181 183 187 186 183 146 140 356 13 22 50 54 126 313 315 201 222 246 268 261 271 284
160 154 164 147 150 145 162 160 171 177 174 187 186 195 193 184 188 190 190 191 193 188 190 193 207 173 176 174 206 105 345 359 12 150 147 268 311 289 301 288 277 283 286
167 144 137 150 155 151 164 167 173 187 187 187 194 200 204 200 207 199 199 203 200 209 212 207 187 184 202 197 203 218 239 240 217 212 182 171 204 285 309 309 305 297 288
154 152 153 160 163 167 173 175 175 195 187 195 194 203 211 211 210 208 210 218 226 220 214 214 203 202 209 210 220 228 243 223 267 265 232 215 241 253 230 302 302 316 314
161 164 165 170 174 175 179 179 186 200 196 198 205 205 224 217 225 230 228 234 235 217 231 218 209 215 211 225 225 248 243 240 247 248 245 253 263 265 285 272 299 315 309
173 173 178 181 182 183 188 191 197 202 203 207 208 212 224 221 232 244 228 235 234 216 220 218 219 219 216 228 233 261 263 249 244 234 243 250 260 271 275 281 300 286 302
184 187 188 192 192 194 201 205 208 212 213 215 216 218 225 230 238 242 233 233 235 214 215 219 217 213 217 225 231 250 278 240 251 270 250 248 267 266 272 276 276 294 296
196 196 196 199 203 207 206 209 211 212 213 218 219 223 240 234 241 245 240 231 231 220 229 232 221 212 221 228 222 231 262 255 320 299 255 251 250 258 267 261 280 286 287
201 203 203 203 205 209 208 208 211 213 214 217 218 223 228 227 240 243 241 234 229 225 228 234 224 216 217 227 225 230 234 299 282 284 263 266 246 259 263 269 270 281 281
203 204 207 209 210 211 214 211 215 216 217 217 218 221 247 236 239 236 234 241 235 228 230 233 217 218 224 221 228 245 266 294 260 263 278 274 257 266 275 270 269 270 278
206 207 208 209 212 212 214 217 215 219 214 218 217 215 229 236 246 249 247 250 244 240 232 228 218 218 220 240 250 264 272 275 252 254 269 273 274 274 275 267 263 271 269